Regional Weather Roundup
Issued by NWS

Home | Current Version | Previous Version | Graphics & Text | Print | Product List | Glossary On
Versions: 1 2 3 4 5 6 7 8 9 10 11 12 13 14 15 16 17 18 19 20 21 22 23 24 25 26 27 28 29 30 31 32 33 34 35 36 37 38 39 40 41 42 43 44 45 46 47 48 49 50
000
ASUS43 KBIS 292302
RWRND

NORTH DAKOTA REGIONAL WEATHER ROUNDUP
NATIONAL WEATHER SERVICE BISMARCK ND
600 PM CDT THU SEP 29 2016

NOTE: "FAIR" INDICATES FEW OR NO CLOUDS BELOW 12,000 FEET WITH NO
SIGNIFICANT WEATHER AND/OR OBSTRUCTIONS TO VISIBILITY.


NDZ001>003-009>011-017-300000-
NORTHWEST NORTH DAKOTA

CITY           SKY/WX    TMP DP  RH WIND       PRES   REMARKS
WILLISTON      SUNNY     75  46  35 SE14G24   30.12F
MINOT          SUNNY     71  45  39 SE12      30.23S
MINOT AFB      SUNNY     70  45  41 SE18G24   30.22S
$$

NDZ018>021-031>035-040>046-300000-
SOUTHWEST NORTH DAKOTA

CITY           SKY/WX    TMP DP  RH WIND       PRES   REMARKS
BISMARCK       SUNNY     69  46  43 SE16      30.26S
DICKINSON      SUNNY     72  43  35 SE17G25   30.16S
GARRISON         N/A     69  46  43 SE10G20   30.23F
HETTINGER ARPT SUNNY     75  43  31 SE20      30.19S
$$

NDZ004>008-012>016-024-026-027-054-300000-
NORTHEAST NORTH DAKOTA

CITY           SKY/WX    TMP DP  RH WIND       PRES   REMARKS
GRAND FORKS    MOSUNNY   66  45  46 S12       30.37F
GRND FRKS AFB  SUNNY     65  47  52 S13       30.37S
DEVILS LAKE    SUNNY     64  49  57 SE12      30.33F
$$

NDZ022-023-025-028>030-036>039-047>053-300000-
SOUTHEAST NORTH DAKOTA

CITY           SKY/WX    TMP DP  RH WIND       PRES   REMARKS
FARGO          SUNNY     66  44  45 SE12      30.38F
JAMESTOWN      SUNNY     65  47  52 SE10      30.32F
$$




USA.gov is the U.S. government's official web portal to all federal, state and local government web resources and services.